Location: 3 Angels Observatory
(30.5437°N, 88.5068°W)
Time: 01:57:09
(UTC-05:00)

Amateur Radio Satellites - All Passes

Search period start: 02 September 2014 01:27
Search period end: 03 September 2014 01:27
Location: 3 Angels Observatory, 30.5437°N, 88.5068°W

Satellite Date Start Highest point End Downlink Frequencies (MHz)
Time Altitude Azimuth
PCSat 02 Sep 01:38:40 01:43:34 34° 60° (ENE) 01:48:26 145.825 MHz
Oscar 19 02 Sep 01:42:54 01:47:19 28° 97° (E) 01:51:42 437.125 CW, 437.150 USB
AO-Echo 02 Sep 01:53:02 01:55:24 14° 95° (E) 01:57:46 ?
Oscar 16 02 Sep 02:17:35 02:22:46 70° 102° (ESE) 02:27:55 437.025 USB, Beacon 2401.1428
SO-50 02 Sep 02:20:01 02:23:57 32° 112° (ESE) 02:27:58 436.795 FM
ITAMSAT 1 02 Sep 02:20:39 02:25:02 27° 97° (E) 02:29:24 435.822 SSB
Uribyol 2 02 Sep 02:29:40 02:34:27 37° 99° (E) 02:39:14 436.500 FM
JAS-1B 02 Sep 02:36:02 02:41:41 36° 97° (E) 02:46:52 435.800 - 435.900 CW/SSB
TMSAT-1 02 Sep 02:43:55 02:46:29 14° 94° (E) 02:49:04 436.925 FM
AO-27 02 Sep 02:49:45 02:54:52 58° 101° (E) 02:59:58 436.795 MHz FM
Sapphire 02 Sep 02:52:27 02:57:42 52° 249° (WSW) 03:02:56 437.095 MHz 1200 baud AX-25 AFSK
OPAL 02 Sep 03:17:59 03:19:23 11° 62° (ENE) 03:20:47 ?
Oscar 19 02 Sep 03:22:14 03:26:29 26° 290° (WNW) 03:30:44 437.125 CW, 437.150 USB
PCSat 02 Sep 03:22:26 03:26:44 25° 254° (WSW) 03:31:02 145.825 MHz
AO-Echo 02 Sep 03:29:52 03:34:18 43° 286° (WNW) 03:38:47 ?
Gurwin Techsat 1B 02 Sep 03:31:27 03:36:44 66° 102° (ESE) 03:41:59 435.225 FM
ITAMSAT 1 02 Sep 04:00:05 04:04:23 27° 290° (WNW) 04:08:40 435.822 SSB
Oscar 16 02 Sep 04:00:08 04:01:27 11° 295° (WNW) 04:02:46 437.025 USB, Beacon 2401.1428
SO-50 02 Sep 04:01:16 04:04:32 20° 307° (NW) 04:07:51 436.795 FM
UOSAT-12 02 Sep 04:05:56 04:09:55 31° 111° (ESE) 04:14:00 437.025 FM, 437.400 FM
Uribyol 2 02 Sep 04:09:52 04:13:37 21° 292° (WNW) 04:17:22 436.500 FM
TMSAT-1 02 Sep 04:21:29 04:26:38 54° 286° (WNW) 04:31:46 436.925 FM
Uosat F 02 Sep 04:23:01 04:26:59 23° 97° (E) 04:30:57 435.120 FM
JAS-1B 02 Sep 04:27:13 04:32:03 24° 295° (WNW) 04:36:32 435.800 - 435.900 CW/SSB
AO-27 02 Sep 04:31:27 04:33:50 13° 294° (WNW) 04:36:12 436.795 MHz FM
AO-7 02 Sep 04:36:59 04:44:43 42° 101° (E) 04:52:24 29.400 - 29.500 MHz
OPAL 02 Sep 04:52:35 04:57:35 69° 256° (WSW) 05:02:42 ?
Gurwin Techsat 1B 02 Sep 05:14:04 05:16:04 12° 295° (WNW) 05:18:03 435.225 FM
JAS-2 02 Sep 05:34:14 05:36:41 13° 95° (E) 05:39:12 435.800 - 435.900 CW/SSB, 435.910 FM
UOSAT-12 02 Sep 05:46:27 05:50:03 22° 306° (NW) 05:53:42 437.025 FM, 437.400 FM
Uosat F 02 Sep 06:01:24 06:05:41 29° 289° (WNW) 06:09:58 435.120 FM
Saudisat 1A 02 Sep 06:14:53 06:16:13 11° 50° (NE) 06:17:33 436.775 MHz
RS-15 02 Sep 06:20:12 06:30:22 42° 108° (ESE) 06:40:15 29.354 - 29.394 USB, Beacon 29.352 USB
AO-7 02 Sep 06:29:59 06:37:14 35° 296° (WNW) 06:44:29 29.400 - 29.500 MHz
STRAND 1 02 Sep 06:40:45 06:45:41 52° 74° (ENE) 06:50:37 ?
Hamsat 02 Sep 07:01:54 07:06:10 59° 284° (WNW) 07:10:22 145.90 MHz
JAS-2 02 Sep 07:16:36 07:21:54 60° 285° (WNW) 07:27:45 435.800 - 435.900 CW/SSB, 435.910 FM
SO-67 02 Sep 07:41:00 07:44:19 45° 99° (E) 07:47:38 435.3500 MHz FM
Saudisat 1A 02 Sep 07:51:48 07:56:10 63° 245° (WSW) 08:00:30 436.775 MHz
KITSAT 1 02 Sep 08:16:53 08:24:40 49° 59° (ENE) 08:32:23 435.175 FM
STRAND 1 02 Sep 08:22:43 08:25:04 13° 266° (W) 08:27:26 ?
RS-15 02 Sep 08:31:55 08:42:25 47° 305° (NW) 08:52:49 29.354 - 29.394 USB, Beacon 29.352 USB
ISS 02 Sep 08:44:00 08:47:15 57° 132° (SE) 08:50:30 145.800 FM
PANSAT 02 Sep 08:48:55 08:50:47 13° 155° (SSE) 08:52:39 not established
HO-68 02 Sep 09:06:59 09:13:13 32° 98° (E) 09:19:25 435.675 MHz FM
KITSAT 1 02 Sep 10:12:58 10:19:37 29° 254° (WSW) 10:26:17 435.175 FM
ISS 02 Sep 10:22:44 10:24:13 12° 326° (NNW) 10:25:43 145.800 FM
PANSAT 02 Sep 10:26:55 10:30:32 38° 165° (SSE) 10:34:08 not established
UKube-1 02 Sep 10:36:30 10:40:46 59° 285° (WNW) 10:45:02 145.840 MHz, 145.915 MHz
Oscar 11 02 Sep 10:39:36 10:43:59 87° 282° (WNW) 10:48:20 145.825 FM, Beacon 2401.500 USB
HO-68 02 Sep 10:54:20 11:00:50 39° 292° (WNW) 11:07:20 435.675 MHz FM
RS-15 02 Sep 10:55:57 10:58:31 11° 333° (NNW) 11:01:05 29.354 - 29.394 USB, Beacon 29.352 USB
FUNcube-1 02 Sep 11:12:48 11:17:24 84° 102° (ESE) 11:22:01 145.950 - 145.970 MHz USB
MaSat-1 02 Sep 11:52:18 11:56:30 32° 104° (ESE) 12:01:00 437.345 MHz
PANSAT 02 Sep 12:06:42 12:10:32 64° 178° (S) 12:14:22 not established
Oscar 10/S400 02 Sep 12:16:47 03:33:39 54° 230° (SW) 13:08:56 145.825 - 145.975 CW/USB, Beacon 145.810 USB
SO-50 02 Sep 12:36:31 12:41:21 82° 63° (ENE) 12:46:13 436.795 FM
Oscar 19 02 Sep 12:54:42 12:58:44 24° 69° (ENE) 13:02:46 437.125 CW, 437.150 USB
AO-Echo 02 Sep 13:02:09 13:03:33 11° 66° (ENE) 13:04:58 ?
JAS-1B 02 Sep 13:12:11 13:19:59 29° 66° (ENE) 13:27:10 435.800 - 435.900 CW/SSB
Oscar 16 02 Sep 13:28:56 13:33:57 57° 74° (ENE) 13:39:01 437.025 USB, Beacon 2401.1428
MaSat-1 02 Sep 13:29:38 13:33:30 23° 300° (WNW) 13:37:34 437.345 MHz
ITAMSAT 1 02 Sep 13:33:38 13:37:43 24° 69° (ENE) 13:41:47 435.822 SSB
Uribyol 2 02 Sep 13:42:20 13:46:50 32° 71° (ENE) 13:51:21 436.500 FM
PANSAT 02 Sep 13:46:50 13:50:35 49° 191° (S) 13:54:19 not established
TMSAT-1 02 Sep 14:00:01 14:02:22 13° 66° (ENE) 14:04:43 436.925 FM
AO-27 02 Sep 14:02:25 14:07:24 50° 73° (ENE) 14:12:22 436.795 MHz FM
UOSAT-12 02 Sep 14:20:10 14:24:52 71° 62° (ENE) 14:29:28 437.025 FM, 437.400 FM
Oscar 19 02 Sep 14:33:18 14:37:50 31° 262° (W) 14:42:25 437.125 CW, 437.150 USB
AO-Echo 02 Sep 14:36:47 14:41:48 63° 259° (WSW) 14:46:40 ?
Gurwin Techsat 1B 02 Sep 14:46:56 14:52:07 59° 74° (ENE) 14:57:20 435.225 FM
JAS-1B 02 Sep 15:00:08 15:09:53 63° 258° (WSW) 15:18:49 435.800 - 435.900 CW/SSB
Oscar 16 02 Sep 15:11:30 15:13:34 12° 267° (W) 15:15:38 437.025 USB, Beacon 2401.1428
ITAMSAT 1 02 Sep 15:12:29 15:17:00 30° 262° (W) 15:21:31 435.822 SSB
Uribyol 2 02 Sep 15:22:15 15:26:15 23° 264° (W) 15:30:17 436.500 FM
PANSAT 02 Sep 15:27:34 15:30:25 20° 202° (SSW) 15:33:16 not established
RS-15 02 Sep 15:27:54 15:37:14 30° 48° (NE) 15:46:48 29.354 - 29.394 USB, Beacon 29.352 USB
AO-7 02 Sep 15:30:06 15:37:26 36° 65° (ENE) 15:44:45 29.400 - 29.500 MHz
Uosat F 02 Sep 15:31:35 15:34:59 19° 68° (ENE) 15:38:24 435.120 FM
TMSAT-1 02 Sep 15:36:30 15:41:42 61° 259° (W) 15:46:56 436.925 FM
AO-27 02 Sep 15:44:22 15:47:05 14° 266° (W) 15:49:49 436.795 MHz FM
Sapphire 02 Sep 15:45:23 15:50:30 46° 110° (ESE) 15:55:38 437.095 MHz 1200 baud AX-25 AFSK
PCSat 02 Sep 16:14:10 16:19:34 84° 294° (WNW) 16:25:01 145.825 MHz
Gurwin Techsat 1B 02 Sep 16:30:15 16:32:22 12° 267° (W) 16:34:29 435.225 FM
ISS 02 Sep 16:53:42 16:56:59 56° 44° (NE) 17:00:15 145.800 FM
OPAL 02 Sep 17:08:09 17:13:14 52° 102° (ESE) 17:18:16 ?
Uosat F 02 Sep 17:08:49 17:13:27 38° 261° (W) 17:18:05 435.120 FM
AO-7 02 Sep 17:22:13 17:29:57 42° 259° (W) 17:37:44 29.400 - 29.500 MHz
JAS-2 02 Sep 17:23:44 17:28:56 29° 72° (ENE) 17:33:41 435.800 - 435.900 CW/SSB, 435.910 FM
Sapphire 02 Sep 17:30:16 17:34:06 19° 305° (NW) 17:37:56 437.095 MHz 1200 baud AX-25 AFSK
RS-15 02 Sep 17:39:17 17:50:23 71° 247° (WSW) 18:01:59 29.354 - 29.394 USB, Beacon 29.352 USB
Hamsat 02 Sep 17:49:25 17:53:31 45° 75° (ENE) 17:57:41 145.90 MHz
OPAL 02 Sep 18:48:41 18:51:37 15° 296° (WNW) 18:54:32 ?
STRAND 1 02 Sep 18:57:28 19:01:50 28° 98° (E) 19:06:11 ?
JAS-2 02 Sep 19:08:30 19:13:54 30° 261° (W) 19:18:50 435.800 - 435.900 CW/SSB, 435.910 FM
Hamsat 02 Sep 19:28:37 19:29:39 11° 267° (W) 19:30:41 145.90 MHz
HO-68 02 Sep 19:33:04 19:36:04 13° 59° (ENE) 19:39:03 435.675 MHz FM
SO-67 02 Sep 19:41:12 19:44:32 48° 261° (W) 19:47:54 435.3500 MHz FM
RS-15 02 Sep 19:59:49 20:00:56 10° 261° (W) 20:02:04 29.354 - 29.394 USB, Beacon 29.352 USB
STRAND 1 02 Sep 20:36:43 20:40:51 26° 290° (WNW) 20:45:00 ?
HO-68 02 Sep 21:15:36 21:22:45 89° 74° (ENE) 21:29:55 435.675 MHz FM
UKube-1 02 Sep 21:26:17 21:30:31 55° 75° (ENE) 21:34:46 145.840 MHz, 145.915 MHz
Oscar 11 02 Sep 21:29:15 21:33:11 35° 73° (ENE) 21:37:08 145.825 FM, Beacon 2401.500 USB
Saudisat 1A 02 Sep 21:52:45 21:57:06 62° 299° (WNW) 22:01:28 436.775 MHz
MaSat-1 02 Sep 21:52:48 21:55:55 20° 58° (ENE) 21:58:44 437.345 MHz
FUNcube-1 02 Sep 22:04:18 22:07:58 31° 73° (ENE) 22:11:43 145.950 - 145.970 MHz USB
KITSAT 1 02 Sep 22:38:06 22:46:08 73° 113° (ESE) 22:54:11 435.175 FM
Oscar 11 02 Sep 23:07:02 23:09:25 14° 266° (W) 23:11:48 145.825 FM, Beacon 2401.500 USB
HO-68 02 Sep 23:09:07 23:11:04 11° 268° (W) 23:13:02 435.675 MHz FM
MaSat-1 02 Sep 23:29:39 23:32:45 21° 258° (WSW) 23:35:32 437.345 MHz
FUNcube-1 02 Sep 23:42:01 23:44:24 15° 266° (W) 23:46:50 145.950 - 145.970 MHz USB
KITSAT 1 03 Sep 00:36:15 00:42:11 22° 310° (NW) 00:48:09 435.175 FM
Sapphire 03 Sep 00:41:07 00:43:22 12° 52° (NE) 00:45:36 437.095 MHz 1200 baud AX-25 AFSK
PCSat 03 Sep 01:08:31 01:12:54 24° 57° (ENE) 01:17:14 145.825 MHz
Oscar 19 03 Sep 01:13:20 01:15:33 13° 93° (E) 01:17:45 437.125 CW, 437.150 USB
